CDT,Max TemperatureF,Mean TemperatureF,Min TemperatureF,Max Dew PointF,MeanDew PointF,Min DewpointF,Max Humidity, Mean Humidity, Min Humidity, Max Sea Level PressureIn, Mean Sea Level PressureIn, Min Sea Level PressureIn, Max VisibilityMiles, Mean VisibilityMiles, Min VisibilityMiles, Max Wind SpeedMPH, Mean Wind SpeedMPH, Max Gust SpeedMPH,PrecipitationIn, CloudCover, Events, WindDirDegrees
2012-10-1,73,65,57,61,57,53,100,77,53,29.79,29.71,29.68,10,8,2,17,7,23,0.16,6,Rain,325
2012-10-2,73,62,51,57,53,49,100,72,44,29.97,29.89,29.79,10,10,7,10,2,31,0.00,0,,341
2012-10-3,77,64,51,62,56,51,100,72,43,30.10,30.04,29.98,10,10,6,10,2,15,0.00,0,,167
2012-10-4,82,68,53,64,59,53,100,73,45,30.22,30.15,30.11,10,9,6,10,2,16,0.00,0,,152
2012-10-5,83,71,58,68,64,58,100,79,58,30.14,30.07,29.97,10,9,5,20,5,24,0.00,2,,197
2012-10-6,58,52,45,55,44,39,93,78,63,30.23,30.16,30.09,10,10,7,17,9,24,T,8,Rain,14
2012-10-7,61,53,44,47,42,37,100,74,47,30.29,30.23,30.16,10,10,6,14,6,18,0.28,6,Rain,8
2012-10-8,59,51,42,48,44,41,100,79,57,30.29,30.23,30.15,10,10,4,10,2,15,0.01,6,Rain,21
2012-10-9,70,54,38,60,48,37,100,81,61,30.15,30.08,29.95,10,10,6,14,3,16,T,3,,157
2012-10-10,71,65,58,61,58,49,100,82,64,30.22,30.15,30.04,10,10,10,14,5,17,T,7,Rain,43
2012-10-11,82,69,56,70,60,48,100,81,62,30.22,30.17,30.14,10,8,0,13,3,17,0.00,3,Fog,130
2012-10-12,80,70,60,69,65,61,100,84,67,30.27,30.18,30.15,9,5,0,8,2,10,0.00,2,Fog,129
2012-10-13,81,70,59,68,64,60,100,84,67,30.19,30.12,29.94,10,5,0,20,7,23,0.00,4,Fog,165
2012-10-14,81,69,56,72,65,57,100,77,54,30.04,29.99,29.91,10,8,1,23,8,37,1.33,6,Rain-Thunderstorm,206
2012-10-15,78,64,49,58,53,48,100,69,38,30.11,30.04,29.98,10,10,9,7,1,13,0.00,0,,350
2012-10-16,68,59,50,62,55,48,100,84,68,30.01,29.91,29.80,10,10,9,7,3,14,0.00,0,,164
2012-10-17,78,67,56,70,64,56,100,85,69,29.80,29.67,29.55,10,9,2,23,11,30,0.37,3,Rain-Thunderstorm,193
2012-10-18,73,61,48,60,48,32,100,62,24,29.94,29.87,29.74,10,7,1,16,4,22,0.01,0,,267
2012-10-19,73,59,45,46,39,34,89,57,25,29.93,29.89,29.85,10,10,10,21,6,29,0.00,3,,250
2012-10-20,80,61,41,55,46,39,92,64,35,29.98,29.91,29.86,10,10,10,12,3,15,0.00,0,,166
2012-10-21,84,73,62,67,60,51,78,67,55,30.03,29.97,29.93,10,10,10,18,8,25,0.00,3,,165
2012-10-22,83,71,59,63,59,53,97,67,37,30.09,30.04,30.00,10,10,6,16,5,23,0.00,0,,161
2012-10-23,80,70,59,63,60,57,100,79,58,30.07,30.01,29.98,10,10,7,14,4,24,0.00,0,,161
2012-10-24,81,70,58,66,62,58,100,77,54,30.07,30.00,29.94,10,9,5,16,4,21,0.00,0,,159
2012-10-25,81,73,64,69,66,62,93,80,67,29.99,29.93,29.89,10,9,6,15,5,21,0.06,4,,165
2012-10-26,64,54,43,66,47,43,93,90,86,30.25,30.15,29.97,10,7,2,18,7,25,0.35,8,Rain-Thunderstorm,7
2012-10-27,58,48,37,41,36,34,96,70,43,30.25,30.19,30.12,10,10,9,15,7,20,0.00,0,,341
2012-10-28,59,47,34,39,34,31,92,65,37,30.25,30.21,30.18,10,10,10,15,5,20,0.00,0,,332
2012-10-29,61,47,33,42,35,31,100,68,36,30.32,30.23,30.15,10,10,8,12,3,16,0.00,0,,359
2012-10-30,68,51,33,47,39,32,100,67,34,30.14,30.06,29.98,10,10,9,12,2,14,0.00,0,,256
2012-10-31,73,58,42,54,48,41,96,73,49,30.01,29.98,29.96,10,10,7,10,2,13,0.00,1,,335